Weather History for St. Francis, KS

Change the Weather History Date:

Saturday, February 23, 2013

  Actual Average Record
Temperature  
Mean Temperature 25 °F -  
Max Temperature 41 °F 52 °F 41 °F (2013)
Min Temperature 9 °F 22 °F 9 °F (2013)
Degree Days  
Heating Degree Days 40    
Moisture  
Dew Point 19 °F    
Average Humidity 78    
Maximum Humidity 90    
Minimum Humidity 57    
Precipitation  
Precipitation 0.00 in - - ()
Sea Level Pressure  
Sea Level Pressure 29.77 in    
Wind  
Wind Speed 9 mph (SW)    
Max Wind Speed 14 mph    
Max Gust Speed -    
Visibility 10 miles    
Events      
Averages and records for this station are not official NWS values.
T = Trace of Precipitation, MM = Missing Value Source: NWS Daily Summary

Daily Weather History Graph

Daily Weather History Graph

Search for Another Location

Airport:

Trip Planner

Search our weather history database for the weather conditions in past years. The results will help you decide how hot, cold, wet, or windy it might be!

Date:

Astronomy

Feb. 23, 2013 Rise Set
Actual Time 7:28 AM CST 6:32 PM CST
Civil Twilight 7:01 AM CST 7:00 PM CST
Nautical Twilight 6:29 AM CST 7:31 PM CST
Astronomical Twilight 5:58 AM CST 8:02 PM CST
Moon 4:45 PM CST (2/23) 5:52 AM CST (2/23)
Length of Visible Light 11h 58m
Length of Day
11h 04m
Waxing Gibbous, 95% of the Moon is Illuminated
Feb 23
Waxing Gibbous
Feb 25
Full
Mar 4
Last Quarter
Mar 11
New
Mar 19
First Quarter

Hourly Weather History & Observations

Time (CST) Temp. Windchill Dew Point Humidity Pressure Visibility Wind Dir Wind Speed Gust Speed Precip Events Conditions
12:15 AM 16.3 °F 4.9 °F 11.8 °F 82% 29.92 in 10.0 mi WSW 9.2 mph - N/A   Clear
12:35 AM 16.5 °F 3.6 °F 12.0 °F 82% 29.91 in 10.0 mi SW 11.5 mph - N/A   Clear
12:55 AM 16.7 °F 3.8 °F 12.2 °F 82% 29.91 in 10.0 mi SW 11.5 mph - N/A   Clear
1:15 AM 15.8 °F 3.4 °F 11.7 °F 84% 29.90 in 10.0 mi SW 10.4 mph - N/A   Clear
1:35 AM 14.9 °F 2.3 °F 10.9 °F 84% 29.90 in 10.0 mi WSW 10.4 mph - N/A   Clear
1:55 AM 15.3 °F 2.0 °F 10.9 °F 83% 29.89 in 10.0 mi WSW 11.5 mph - N/A   Clear
2:15 AM 14.9 °F 0.9 °F 10.8 °F 84% 29.89 in 10.0 mi SW 12.7 mph - N/A   Clear
2:35 AM 15.8 °F 2.1 °F 11.1 °F 82% 29.88 in 10.0 mi WSW 12.7 mph - N/A   Mostly Cloudy
2:55 AM 15.4 °F 1.6 °F 10.8 °F 82% 29.87 in 10.0 mi SW 12.7 mph - N/A   Scattered Clouds
3:15 AM 15.6 °F 1.2 °F 10.9 °F 82% 29.86 in 10.0 mi SW 13.8 mph - N/A   Clear
3:35 AM 15.3 °F 0.8 °F 10.8 °F 82% 29.85 in 10.0 mi SW 13.8 mph - N/A   Scattered Clouds
3:55 AM 15.3 °F 0.8 °F 10.9 °F 83% 29.84 in 10.0 mi SW 13.8 mph - N/A   Clear
4:15 AM 14.9 °F 0.3 °F 10.8 °F 84% 29.84 in 10.0 mi SW 13.8 mph - N/A   Clear
4:35 AM 14.9 °F 0.9 °F 10.9 °F 84% 29.83 in 10.0 mi SW 12.7 mph - N/A   Clear
4:55 AM 14.9 °F 1.6 °F 10.8 °F 84% 29.83 in 10.0 mi SW 11.5 mph - N/A   Clear
5:15 AM 14.7 °F 2.9 °F 10.6 °F 84% 29.83 in 10.0 mi SW 9.2 mph - N/A   Clear
5:35 AM 14.0 °F 3.9 °F 10.2 °F 85% 29.83 in 10.0 mi SW 6.9 mph - N/A   Clear
5:55 AM 13.8 °F 4.9 °F 9.9 °F 84% 29.82 in 10.0 mi WSW 5.8 mph - N/A   Clear
6:15 AM 9.7 °F -0.1 °F 6.6 °F 87% 29.82 in 10.0 mi WSW 5.8 mph - N/A   Clear
6:35 AM 11.8 °F 0.3 °F 8.2 °F 85% 29.81 in 10.0 mi WSW 8.1 mph - N/A   Clear
6:55 AM 11.3 °F -1.3 °F 7.9 °F 86% 29.81 in 10.0 mi SW 9.2 mph - N/A   Clear
7:15 AM 11.3 °F -1.3 °F 7.7 °F 85% 29.81 in 10.0 mi WSW 9.2 mph - N/A   Clear
7:35 AM 10.9 °F -3.4 °F 7.3 °F 85% 29.81 in 10.0 mi SW 11.5 mph - N/A   Clear
7:55 AM 12.2 °F -1.8 °F 8.6 °F 85% 29.81 in 10.0 mi SW 11.5 mph - N/A   Clear
8:15 AM 13.1 °F 0.1 °F 9.1 °F 84% 29.81 in 10.0 mi WSW 10.4 mph - N/A   Clear
8:55 AM 14.5 °F 3.6 °F 10.4 °F 84% 29.80 in 10.0 mi SSW 8.1 mph - N/A   Clear
9:15 AM 18.5 °F 8.4 °F 13.6 °F 81% 29.80 in 10.0 mi SW 8.1 mph - N/A   Clear
9:35 AM 20.5 °F 10.0 °F 14.9 °F 79% 29.79 in 10.0 mi WSW 9.2 mph - N/A   Clear
9:55 AM 20.3 °F 12.5 °F 14.4 °F 78% 29.80 in 10.0 mi WSW 5.8 mph - N/A   Clear
10:15 AM 22.3 °F 13.0 °F 15.8 °F 76% 29.80 in 10.0 mi WSW 8.1 mph - N/A   Clear
10:35 AM 23.9 °F 15.0 °F 17.4 °F 76% 29.79 in 10.0 mi WSW 8.1 mph - N/A   Clear
10:55 AM 26.6 °F 18.2 °F 19.0 °F 73% 29.80 in 10.0 mi WSW 8.1 mph - N/A   Clear
11:15 AM 27.9 °F 22.6 °F 19.8 °F 72% 29.79 in 10.0 mi SW 4.6 mph - N/A   Clear
11:35 AM 29.8 °F 22.2 °F 21.4 °F 71% 29.79 in 10.0 mi SW 8.1 mph - N/A   Clear
11:55 AM 32.0 °F 23.6 °F 23.2 °F 70% 29.79 in 10.0 mi SW 10.4 mph - N/A   Clear
12:15 PM 33.4 °F 26.6 °F 24.4 °F 70% 29.78 in 10.0 mi SW 8.1 mph - N/A   Clear
12:35 PM 34.7 °F 28.1 °F 25.5 °F 69% 29.76 in 10.0 mi SW 8.1 mph - N/A   Clear
12:55 PM 36.5 °F 30.3 °F 26.2 °F 66% 29.76 in 10.0 mi SW 8.1 mph - N/A   Clear
1:15 PM 37.6 °F 31.6 °F 27.0 °F 66% 29.75 in 10.0 mi SSW 8.1 mph - N/A   Clear
1:35 PM 38.3 °F 31.4 °F 26.2 °F 62% 29.74 in 10.0 mi SSW 10.4 mph - N/A   Clear
1:55 PM 39.2 °F 33.0 °F 27.7 °F 63% 29.72 in 10.0 mi SSW 9.2 mph - N/A   Clear
2:15 PM 40.1 °F 33.2 °F 27.3 °F 60% 29.72 in 10.0 mi South 11.5 mph - N/A   Clear
2:35 PM 41.0 °F 36.4 °F 26.8 °F 57% 29.71 in 10.0 mi SSW 6.9 mph - N/A   Clear
2:55 PM 41.4 °F 36.8 °F 27.7 °F 58% 29.69 in 10.0 mi South 6.9 mph - N/A   Clear
3:15 PM 41.7 °F 38.0 °F 28.2 °F 59% 29.69 in 10.0 mi South 5.8 mph - N/A   Clear
3:35 PM 41.5 °F 36.4 °F 27.9 °F 58% 29.68 in 10.0 mi South 8.1 mph - N/A   Clear
3:55 PM 41.4 °F 35.7 °F 28.2 °F 60% 29.68 in 10.0 mi South 9.2 mph - N/A   Clear
4:15 PM 41.2 °F 35.5 °F 27.7 °F 59% 29.68 in 10.0 mi South 9.2 mph - N/A   Clear
4:35 PM 41.0 °F 35.2 °F 29.5 °F 64% 29.68 in 10.0 mi South 9.2 mph - N/A   Clear
4:55 PM 39.6 °F 35.4 °F 30.9 °F 71% 29.68 in 10.0 mi SSE 5.8 mph - N/A   Clear
5:15 PM 40.3 °F 34.9 °F 31.3 °F 70% 29.68 in 10.0 mi SSE 8.1 mph - N/A   Clear
5:35 PM 38.7 °F 33.6 °F 30.2 °F 72% 29.68 in 10.0 mi South 6.9 mph - N/A   Clear
5:55 PM 37.6 °F 32.3 °F 29.7 °F 73% 29.68 in 10.0 mi SSE 6.9 mph - N/A   Clear
6:15 PM 34.3 °F 27.0 °F 28.8 °F 80% 29.68 in 10.0 mi SSE 9.2 mph - N/A   Clear
6:35 PM 32.7 °F 25.0 °F 28.2 °F 83% 29.69 in 10.0 mi SSE 9.2 mph - N/A   Clear
6:55 PM 32.0 °F 27.5 °F 27.5 °F 83% 29.69 in 10.0 mi South 4.6 mph - N/A   Clear
7:15 PM 31.6 °F - 27.5 °F 85% 29.69 in 10.0 mi Calm Calm - N/A   Clear
7:35 PM 30.7 °F - 27.0 °F 86% 29.70 in 10.0 mi Calm Calm - N/A   Clear
7:55 PM 29.5 °F 24.5 °F 25.9 °F 86% 29.70 in 10.0 mi SE 4.6 mph - N/A   Clear
8:15 PM 28.4 °F 23.3 °F 25.3 °F 88% 29.70 in 10.0 mi SSE 4.6 mph - N/A   Clear
8:35 PM 28.4 °F 23.3 °F 24.8 °F 86% 29.70 in 10.0 mi South 4.6 mph - N/A   Clear
8:55 PM 28.8 °F 25.0 °F 24.8 °F 85% 29.70 in 10.0 mi SW 3.5 mph - N/A   Clear
9:15 PM 26.8 °F 20.2 °F 23.0 °F 86% 29.71 in 10.0 mi WSW 5.8 mph - N/A   Clear
9:35 PM 27.1 °F - 23.0 °F 84% 29.70 in 10.0 mi Calm Calm - N/A   Clear
9:55 PM 28.4 °F 24.6 °F 23.9 °F 83% 29.71 in 10.0 mi West 3.5 mph - N/A   Clear
10:15 PM 27.5 °F 22.2 °F 23.0 °F 83% 29.71 in 10.0 mi SSW 4.6 mph - N/A   Clear
10:35 PM 27.0 °F - 21.6 °F 80% 29.71 in 10.0 mi Calm Calm - N/A   Clear
10:55 PM 25.9 °F - 22.8 °F 88% 29.71 in 10.0 mi Calm Calm - N/A   Clear
11:15 PM 23.9 °F - 20.3 °F 86% 29.71 in 10.0 mi Calm Calm - N/A   Clear
11:35 PM 23.0 °F - 20.3 °F 89% 29.71 in 10.0 mi Calm Calm - N/A   Clear
11:55 PM 23.7 °F - 21.2 °F 90% 29.71 in 10.0 mi Calm Calm - N/A   Clear